[Iaude] MPEC E71: 2024 ES1 [a=1.50,e=0.34,i=10.3,H=26.4]

mpec at cfa.harvard.edu mpec at cfa.harvard.edu
Wed Mar 6 00:37:46 EST 2024


M.P.E.C. 2024-E71                                 Issued 2024 March 6, 05:36 UT

     The Minor Planet Electronic Circulars contain information on unusual
         minor planets, routine data on comets and natural satellites,
         and occasional editorial announcements.  They are published
    on behalf of Division F of the International Astronomical Union by the
          Minor Planet Center, Smithsonian Astrophysical Observatory,
                          Cambridge, MA 02138, U.S.A.
			  
             Prepared using the Tamkin Foundation Computer Network

                              MPC at CFA.HARVARD.EDU
            URL https://www.minorplanetcenter.net/    ISSN 1523-6714

                                    2024 ES1                                    


Observations:
     K24E01S*1C2024 03 02.40637612 19 58.274+13 53 55.86         18.45GVEE071703
     K24E01S 1C2024 03 02.40867712 19 57.382+13 52 06.20         18.85GVEE071703
     K24E01S 1C2024 03 02.41098112 19 56.554+13 50 18.10         18.28GVEE071703
     K24E01S 1C2024 03 02.41328512 19 55.844+13 48 26.89               VEE071703
     K24E01S 1C2024 03 05.39226212 13 09.570-16 20 02.15         19.67GVEE071703
     K24E01S 1C2024 03 05.39451912 13 09.080-16 21 01.91         19.05GVEE071703
     K24E01S 1C2024 03 05.39677812 13 08.476-16 21 57.46         19.43GVEE071703
     K24E01S 1C2024 03 05.39903712 13 07.972-16 22 54.77         20.34GVEE071703
     K24E01S 0B2024 03 06.07632 12 11 53.525-20 42 45.36         19.8 VZEE071M49
     K24E01S 0B2024 03 06.08913 12 11 50.726-20 47 17.27         19.7 VZEE071M49
     K24E01S 0B2024 03 06.10255 12 11 47.875-20 52 00.55         19.5 VZEE071M49

Observer details:
703 Catalina Sky Survey.  Observers J. B. Fazekas, K. W. Wierzchos.  Measurers
    T. Beuden, V. F. Carvajal, D. Fay, J. B. Fazekas, D. C. Fuls, A. R. Gibbs,
    A. D. Grauer, H. Groeller, J. K. Hogan, R. A. Kowalski, S. M. Larson, G.
    J. Leonard, D. Rankin, R. L. Seaman, F. C. Shelly, K. W. Wierzchos.
    0.68-m Schmidt + 10K CCD.
M49 IAS Remote Observatory, Hakos.  Observers D. Husar, M. Junius.  Measurer
    D. Husar.  0.25-m f/4.5 reflector + CMO.

Orbital elements:
2024 ES1                                                 Earth MOID = 0.0175 AU
Epoch 2024 Mar. 31.0 TT = JDT 2460400.5                 MPC                     
M  25.03899              (2000.0)            P               Q                  
n   0.53513892     Peri.  157.73684     -0.78367332     -0.61916188             
a   1.5025365      Node   343.70497     +0.53971966     -0.63890196             
e   0.3401695      Incl.   10.25392     +0.30750418     -0.45655542             
P   1.84           H   26.49          G   0.15           U   8                  
Residuals in seconds of arc
240302 703  0.8+  0.4+    240305 703  0.1-  1.2+    240306 M49  0.0   0.0
240302 703  0.5-  0.2-    240305 703  0.5+  1.3-    240306 M49  0.0   0.1+
240302 703  0.8-  0.9+    240305 703  0.5-  0.5+    240306 M49  0.0   0.1-
240302 703  0.5+  1.1-    240305 703  0.0   0.4+

Ephemeris:
2024 ES1                 a,e,i = 1.50, 0.34, 10                  q = 0.9914
Date    TT    R. A. (2000) Decl.     Delta      r    Elong.  Phase     V
2024 02 05    23 48 28.0 +71 18 50   0.1062  0.9944    91.5    82.3    24.5
...
2024 02 20    22 44 07.2 +83 15 53   0.04761 0.9935    94.6    82.6    22.8
...
2024 02 28    12 35 38.9 +57 55 23   0.02041 1.0024   125.7    53.3    20.0
...
2024 03 05    12 13 57.1 -13 20 10   0.02356 1.0130   153.8    25.6    19.6
2024 03 06    12 12 10.2 -20 15 11   0.02662 1.0151   149.5    29.7    19.9
2024 03 07    12 10 36.0 -25 39 46   0.02999 1.0173   145.8    33.3    20.3
...
2024 03 13    12 03 53.7 -41 44 15   0.05327 1.0322   134.8    43.1    21.9
...
2024 03 21    11 59 01.2 -48 09 10   0.08698 1.0563   132.1    44.4    23.0
...
2024 04 05    11 56 50.0 -49 52 10   0.1530  1.1129   134.4    39.9    24.2

A. U. Tomatic                (C) Copyright 2024 MPC           M.P.E.C. 2024-E71





More information about the Iaude mailing list